Satellite: AO-27
Catalog number: 22825
Epoch time:      06032.90561940
Element set:    0324
Inclination:      098.2693 deg
RA of node:       021.4662 deg
Eccentricity:    0.0007987
Arg of perigee:   308.5890 deg
Mean anomaly:     051.4576 deg
Mean motion:   14.29161002 rev/day
Decay rate:       -1.4e-07 rev/day^2
Epoch rev:           64403
Checksum:              292

Satellite: IO-26
Catalog number: 22826
Epoch time:      06032.82842718
Element set:    0011
Inclination:      098.2643 deg
RA of node:       022.6370 deg
Eccentricity:    0.0008292
Arg of perigee:   305.4374 deg
Mean anomaly:     054.6025 deg
Mean motion:   14.29404229 rev/day
Decay rate:        3.3e-07 rev/day^2
Epoch rev:           64409
Checksum:              279

Satellite: PO-28
Catalog number: 22829
Epoch time:      06033.58723786
Element set:     292
Inclination:      098.2558 deg
RA of node:       024.5597 deg
Eccentricity:    0.0008913
Arg of perigee:   276.8695 deg
Mean anomaly:     083.1456 deg
Mean motion:   14.30091146 rev/day
Decay rate:       -5.0e-07 rev/day^2
Epoch rev:           64440
Checksum:              328

Satellite: TO-31
Catalog number: 25396
Epoch time:      06033.78869058
Element set:     448
Inclination:      098.4984 deg
RA of node:       098.7678 deg
Eccentricity:    0.0001856
Arg of perigee:   219.2504 deg
Mean anomaly:     140.8553 deg
Mean motion:   14.23695764 rev/day
Decay rate:        3.4e-07 rev/day^2
Epoch rev:           39322
Checksum:              348

Satellite: GO-32
Catalog number: 25397
Epoch time:      06033.75858663
Element set:     939
Inclination:      098.4884 deg
RA of node:       095.7809 deg
Eccentricity:    0.0000484
Arg of perigee:   219.5421 deg
Mean anomaly:     140.5711 deg
Mean motion:   14.23098100 rev/day
Decay rate:        2.7e-07 rev/day^2
Epoch rev:           39312
Checksum:              316

Satellite: UO-36
Catalog number: 25693
Epoch time:      06033.71274393
Element set:     955
Inclination:      064.5598 deg
RA of node:       295.7337 deg
Eccentricity:    0.0003280
Arg of perigee:   317.0015 deg
Mean anomaly:     043.0840 deg
Mean motion:   14.78575102 rev/day
Decay rate:        9.9e-07 rev/day^2
Epoch rev:           36590
Checksum:              315

Satellite: MO-46
Catalog number: 26548
Epoch time:      06033.77522930
Element set:     403
Inclination:      064.5576 deg
RA of node:       287.4574 deg
Eccentricity:    0.0052189
Arg of perigee:   266.2765 deg
Mean anomaly:     093.2362 deg
Mean motion:   14.82908384 rev/day
Decay rate:        3.3e-07 rev/day^2
Epoch rev:           28947
Checksum:              337

Satellite: NO-44
Catalog number: 26931
Epoch time:      06032.40068536
Element set:     224
Inclination:      067.0541 deg
RA of node:       357.4278 deg
Eccentricity:    0.0006822
Arg of perigee:   273.2656 deg
Mean anomaly:     086.7683 deg
Mean motion:   14.29424500 rev/day
Decay rate:       1.72e-06 rev/day^2
Epoch rev:           22652
Checksum:              294

Satellite: SO-50
Catalog number: 27607
Epoch time:      06032.81898394
Element set:     933
Inclination:      064.5572 deg
RA of node:       163.9841 deg
Eccentricity:    0.0059434
Arg of perigee:   188.2589 deg
Mean anomaly:     171.7549 deg
Mean motion:   14.71092263 rev/day
Decay rate:        1.4e-07 rev/day^2
Epoch rev:           16751
Checksum:              335

Satellite: AO-51
Catalog number: 28375
Epoch time:      06033.74050623
Element set:     451
Inclination:      098.1865 deg
RA of node:       091.7806 deg
Eccentricity:    0.0083323
Arg of perigee:   254.7877 deg
Mean anomaly:     104.4091 deg
Mean motion:   14.40502686 rev/day
Decay rate:        2.1e-07 rev/day^2
Epoch rev:            8380
Checksum:              295

Satellite: XO-53
Catalog number: 28894
Epoch time:      06033.73018651
Element set:     313
Inclination:      098.1805 deg
RA of node:       294.0696 deg
Eccentricity:    0.0016659
Arg of perigee:   231.2133 deg
Mean anomaly:     128.7581 deg
Mean motion:   14.59434531 rev/day
Decay rate:       1.17e-06 rev/day^2
Epoch rev:            1436
Checksum:              302

/EX
SB KEPS @ AMSAT  $ORB06033.W
Orbital Elements  06033.WEATHER

HR AMSAT ORBITAL ELEMENTS FOR WEATHER SATELLITES
FROM WA5QGD FORT WORTH,TX February 2, 2006
Send SUBSCRIBE KEPS/UNSUBSCRIBE KEPS to majordomo@amsat.org only
BID: ORB06033.W
TO ALL RADIO AMATEURS BT

Satellite: NOAA-10
Catalog number: 16969
Epoch time:      06033.47748887
Element set:      80
Inclination:      098.7647 deg
RA of node:       044.7965 deg
Eccentricity:    0.0012479
Arg of perigee:   179.3258 deg
Mean anomaly:     180.7948 deg
Mean motion:   14.27284800 rev/day
Decay rate:        6.9e-07 rev/day^2
Epoch rev:             794
Checksum:              358

Satellite: NOAA-11
Catalog number: 19531
Epoch time:      06033.56608560
Element set:     974
Inclination:      098.8319 deg
RA of node:       123.4288 deg
Eccentricity:    0.0011654
Arg of perigee:   017.3117 deg
Mean anomaly:     342.8934 deg
Mean motion:   14.14789192 rev/day
Decay rate:       -7.6e-07 rev/day^2
Epoch rev:           89550
Checksum:              323

Satellite: NOAA-12
Catalog number: 21263
Epoch time:      06033.47872832
Element set:     464
Inclination:      098.7217 deg
RA of node:       027.3885 deg
Eccentricity:    0.0013505
Arg of perigee:   117.9605 deg
Mean anomaly:     242.2946 deg
Mean motion:   14.25481816 rev/day
Decay rate:      -1.14e-06 rev/day^2
Epoch rev:           76505
Checksum:              303

